Theta_e
292 291 290 290 289 289 288 287 286 286 286 285 284 284 283 282 282 282 281 281 280 280 280 280 280 279 278 278 278 277 277 277 274 276 277 277 277 277 277 278 279 278 278
290 289 289 289 288 287 287 286 286 285 285 284 283 283 282 281 281 280 280 280 279 279 279 279 279 280 278 278 277 276 276 276 275 273 275 276 276 276 277 276 278 278 277
288 288 287 287 287 286 285 285 285 283 283 282 282 281 280 280 279 280 279 279 278 279 278 278 278 278 277 277 276 275 275 277 275 274 274 276 276 276 277 276 276 276 277
287 287 286 285 285 285 284 284 283 283 281 280 280 280 280 279 279 279 279 278 278 278 279 279 278 277 276 276 276 275 276 275 275 274 274 274 275 277 276 273 273 274 273
286 286 285 285 284 284 283 283 282 281 281 280 279 279 279 279 279 279 279 278 278 277 278 278 278 278 280 280 278 276 275 274 274 274 273 273 274 273 272 273 272 272 274
285 285 285 284 283 283 282 281 281 280 279 279 279 278 278 279 282 283 282 278 279 278 277 277 277 277 278 281 281 281 280 276 276 274 274 272 272 273 273 272 272 269 266
284 284 283 283 282 282 281 280 280 279 279 278 278 277 277 277 282 284 284 280 278 277 277 277 277 278 277 276 278 279 279 280 280 276 273 273 272 273 273 270 269 268 267
283 283 282 282 282 281 280 280 279 279 278 277 277 277 277 277 282 283 284 280 278 277 277 276 276 276 276 276 276 276 276 276 276 277 276 275 274 274 271 270 269 267 267
282 282 282 282 281 280 279 279 278 278 278 278 278 278 277 277 282 283 283 279 278 277 277 276 276 275 278 280 277 276 275 276 278 278 276 276 274 273 272 268 264 263 261
282 283 282 281 280 280 279 278 278 277 279 278 279 278 277 277 281 283 282 279 277 276 276 276 278 276 279 280 277 276 274 273 272 269 268 268 268 268 270 267 265 261 260
282 282 280 280 280 279 278 275 275 275 277 274 276 277 277 277 277 282 283 280 277 276 275 275 276 278 279 279 280 274 275 272 266 263 263 263 264 265 265 266 265 263 260
281 280 278 277 278 278 275 272 271 272 272 272 271 273 275 275 277 280 282 282 281 277 275 275 274 278 279 280 278 277 276 269 263 259 261 261 263 263 263 263 263 263 263
277 277 276 274 275 275 272 273 272 271 271 271 273 273 274 275 275 280 282 282 282 278 275 276 278 279 278 274 275 274 267 263 260 256 259 261 262 262 262 260 261 261 260
277 276 274 275 273 271 275 274 272 271 271 272 272 273 272 270 272 273 274 274 277 276 276 272 274 276 273 271 266 265 264 263 261 260 260 260 260 258 257 259 256 256 255
276 275 275 274 273 273 273 273 274 274 275 272 272 271 268 271 271 276 273 269 267 271 263 263 265 263 262 259 258 257 258 259 257 257 255 256 256 256 256 257 255 254 251
276 274 274 274 271 271 271 272 279 281 281 282 282 278 274 278 280 280 280 279 278 278 267 264 264 263 261 258 256 256 256 257 256 255 252 253 254 254 254 254 253 249 251
277 274 271 271 271 270 268 269 272 273 281 283 284 284 284 283 281 281 281 281 281 280 265 265 263 261 259 258 256 256 255 257 254 251 251 252 253 252 251 251 252 252 251
270 271 272 272 272 271 271 272 270 270 270 269 276 280 282 283 283 283 282 279 267 265 262 261 258 256 255 254 254 253 252 251 249 249 248 249 247 246 249 249 250 250 251
271 270 271 270 269 270 268 266 268 267 268 266 262 270 268 277 279 280 281 270 263 260 258 254 254 252 252 251 251 249 247 247 247 245 244 245 246 243 248 249 250 251 251
270 270 268 268 267 266 265 266 268 268 269 268 267 268 266 266 263 261 257 256 255 256 256 254 251 248 248 248 246 245 244 244 244 242 245 245 247 243 247 249 250 250 252
271 268 270 267 267 268 269 270 269 269 269 268 268 266 271 266 263 261 259 257 258 257 255 254 249 248 247 245 243 243 242 245 243 244 245 245 244 246 246 249 250 251 252
271 270 269 272 271 268 269 269 269 268 268 268 266 262 275 266 260 259 258 257 256 255 254 251 250 249 248 246 245 243 243 245 246 245 245 245 245 246 248 249 250 251 252
270 270 269 268 269 269 268 268 268 267 267 267 265 264 261 260 262 260 258 256 254 252 247 248 248 246 243 242 242 245 245 247 248 244 246 247 248 248 249 250 252 252 253
271 271 271 270 269 268 269 269 268 268 268 266 265 263 262 260 259 258 257 255 253 249 245 247 247 249 245 244 243 243 244 246 245 247 245 247 248 250 251 252 253 254 254
272 271 270 271 270 270 269 268 268 268 266 266 264 261 259 257 256 256 256 254 252 250 247 246 246 246 247 247 247 246 246 251 250 250 246 247 249 250 252 254 254 254 254
269 271 271 270 269 269 269 268 269 267 265 264 262 260 260 258 259 257 256 255 253 249 248 247 248 247 248 248 248 250 253 256 256 254 252 251 251 253 256 257 257 258 258
Wind_Speed
10 9 11 10 8 7 6 6 6 5 6 6 6 6 5 5 4 4 3 3 2 1 1 2 3 2 3 2 3 2 3 2 6 7 5 6 8 8 9 8 8 9 8
9 11 11 11 9 8 7 6 6 7 5 6 6 5 5 5 4 4 3 2 2 2 3 3 4 3 4 4 3 4 3 4 4 10 9 7 9 10 10 9 7 8 9
9 10 10 10 9 8 7 6 6 6 5 5 5 5 5 4 4 3 3 3 2 3 3 4 5 4 5 4 3 4 3 5 4 6 9 7 8 8 8 7 8 10 9
9 9 8 9 8 8 7 6 6 6 6 5 5 5 4 4 3 3 3 4 4 3 3 5 5 5 5 4 5 5 5 4 5 5 7 8 8 8 7 9 11 9 11
11 9 8 7 7 7 6 6 6 6 5 5 5 4 4 3 3 5 4 4 4 4 4 5 5 4 9 8 5 5 4 3 5 5 8 8 9 9 10 10 12 11 9
11 10 9 8 7 7 6 6 6 5 5 5 5 5 5 3 8 9 6 4 5 4 4 5 5 6 8 12 11 13 11 7 7 6 7 9 11 8 10 10 9 11 14
9 8 9 8 8 7 6 6 5 6 5 5 5 5 5 5 9 11 12 5 5 4 4 5 5 4 5 5 9 13 12 13 13 10 9 8 9 10 9 12 12 12 12
7 8 7 8 7 6 6 6 5 5 5 5 5 5 5 4 11 13 13 5 4 5 5 6 6 6 5 5 6 7 6 5 5 5 7 8 8 12 11 11 12 12 10
8 9 9 8 8 7 6 7 5 4 4 5 4 5 5 6 12 12 10 4 5 5 5 5 5 5 9 12 7 5 6 5 7 12 11 16 19 19 15 8 7 9 11
10 10 8 7 7 8 7 6 4 4 5 3 5 6 6 6 10 12 11 3 5 4 4 5 8 6 11 13 6 5 3 5 3 6 7 9 10 9 14 6 6 8 9
7 6 7 7 7 7 5 3 3 4 4 3 4 4 6 5 6 13 13 6 5 4 4 4 3 9 12 12 12 1 7 5 6 3 4 4 4 4 4 6 8 8 8
7 7 6 7 5 4 6 3 2 4 3 3 3 5 4 5 10 13 14 16 12 5 5 4 3 10 12 12 8 13 15 8 3 3 4 5 5 5 6 7 8 8 8
7 6 6 3 4 4 5 4 2 2 4 4 4 6 5 4 5 11 14 14 13 7 2 4 10 9 9 6 9 11 5 2 2 2 4 5 5 6 8 7 7 8 9
7 7 4 5 3 2 3 4 4 4 4 5 5 6 4 2 3 3 5 4 7 5 3 2 4 5 4 3 3 4 2 1 2 3 4 5 5 5 5 6 7 8 8
5 5 5 4 6 5 5 5 6 7 7 5 5 3 3 5 4 8 6 3 2 5 4 2 1 1 1 1 1 1 1 1 2 2 2 5 5 6 6 5 6 6 5
6 4 5 5 3 2 3 4 12 15 13 16 17 11 5 13 9 6 8 10 11 13 2 2 2 2 3 2 1 2 1 2 2 2 2 3 5 6 7 7 6 3 8
7 6 4 3 4 4 3 3 6 3 11 16 18 18 17 14 12 12 11 12 14 9 3 3 2 2 2 2 2 2 2 2 1 1 2 4 4 6 6 7 6 6 9
4 6 6 6 5 4 4 5 4 4 3 3 6 8 11 13 13 13 14 4 3 3 2 3 3 3 2 2 2 2 2 2 1 2 2 3 3 3 5 7 6 7 8
6 5 5 4 3 4 4 3 3 3 4 4 2 4 3 5 7 10 11 2 3 3 3 3 3 3 3 3 3 2 2 2 2 2 3 3 4 2 6 6 7 10 11
5 5 4 4 4 4 3 3 3 4 4 4 3 4 2 1 1 1 1 2 3 3 3 3 2 3 3 3 2 2 3 2 3 3 4 4 4 3 6 8 7 9 10
5 4 6 3 4 4 4 5 4 3 4 4 4 4 9 4 4 4 4 4 4 3 4 3 3 3 3 3 2 2 3 3 3 4 4 5 4 6 4 7 9 9 10
4 4 5 6 4 4 4 3 3 4 5 5 3 3 12 4 4 4 4 4 4 3 3 4 4 4 4 4 4 3 3 4 4 4 5 4 5 6 6 8 9 9 10
4 4 4 3 4 4 3 4 4 5 5 5 4 4 3 3 4 4 4 3 4 4 3 3 3 3 3 4 3 4 4 5 6 4 5 6 6 7 7 9 10 11 11
6 6 6 5 4 5 5 5 5 7 6 5 4 4 4 4 4 4 4 3 3 3 3 3 3 5 3 3 3 4 5 6 4 6 7 7 8 9 8 10 10 13 12
6 5 5 5 5 5 4 4 5 5 5 5 5 4 3 3 3 4 4 4 4 4 4 3 3 5 5 7 7 7 7 11 10 7 5 8 12 13 12 11 13 13 14
4 5 4 3 4 4 5 5 6 5 5 5 4 5 5 5 5 4 4 4 4 3 4 3 5 6 7 6 8 9 11 13 11 12 10 8 9 11 11 13 18 12 15
Wind_Direction
124 118 133 126 115 121 138 149 134 144 142 128 123 127 132 133 119 117 138 153 143 178 302 259 301 290 288 283 260 258 273 253 276 292 301 312 302 304 299 298 294 299 308
132 133 131 131 136 136 146 145 154 143 134 131 125 137 145 146 140 160 182 155 200 249 279 303 280 283 288 292 286 273 261 272 285 302 308 303 303 302 297 297 302 306 309
139 135 143 140 143 147 147 153 143 135 129 129 137 155 165 162 175 196 207 225 238 250 265 270 272 289 290 273 259 267 269 281 266 278 294 303 298 302 308 307 306 308 304
142 138 153 145 147 152 150 148 142 139 137 145 163 172 175 188 199 222 226 232 245 257 279 279 271 266 266 273 273 258 256 263 277 283 297 305 308 310 312 316 313 309 306
143 156 159 139 139 146 149 148 137 146 162 164 165 192 198 205 215 225 233 233 254 271 269 271 274 275 270 263 256 259 263 257 278 292 305 304 312 323 322 318 305 307 311
159 159 151 150 153 152 149 149 153 162 165 181 195 201 215 225 236 246 230 220 237 250 267 271 268 265 258 272 287 295 294 295 299 300 301 307 312 318 309 307 311 317 313
157 155 153 154 155 161 162 158 169 180 187 202 207 211 230 241 252 254 253 222 213 226 252 276 275 255 257 269 289 292 297 296 298 311 308 302 307 312 316 318 314 306 300
153 155 157 163 159 165 164 174 189 192 201 201 219 222 231 247 251 252 255 238 216 219 232 247 260 276 276 277 262 264 269 256 268 286 300 313 321 325 324 316 312 310 298
171 171 174 166 172 167 179 195 196 189 205 211 210 220 226 240 250 254 256 242 239 229 237 242 258 272 284 295 285 275 277 281 296 317 343 331 327 327 321 329 319 320 314
181 183 169 165 166 181 193 194 186 192 211 202 224 218 224 238 250 252 253 237 246 246 227 249 254 252 285 300 296 289 317 295 16 345 331 332 333 317 328 326 325 319 313
160 154 157 171 185 193 178 164 171 198 215 217 223 234 238 234 242 251 253 249 240 247 240 245 234 281 297 294 303 22 309 32 357 354 331 316 298 296 308 322 324 307 299
153 160 170 188 191 169 177 176 174 179 202 220 242 263 246 239 238 253 255 250 249 237 229 229 233 282 290 301 344 328 331 8 5 346 319 306 312 318 318 318 307 294 291
148 171 193 173 176 165 166 184 198 177 197 221 229 254 259 215 228 263 256 246 244 246 164 229 269 294 329 7 343 330 36 16 345 333 302 311 319 316 313 307 296 298 287
164 187 163 179 178 182 199 183 177 199 218 229 233 248 258 247 245 241 240 252 253 249 268 333 283 313 14 356 22 12 4 357 305 298 314 318 311 312 313 310 311 315 307
154 163 175 172 194 203 209 203 208 221 204 211 228 209 213 266 241 244 217 208 186 223 101 66 67 43 323 322 324 301 310 321 318 282 291 312 314 317 310 312 303 308 288
176 178 194 195 192 202 204 261 245 248 245 250 256 236 217 239 258 255 256 212 220 232 91 168 203 212 228 224 270 304 265 238 257 263 278 296 307 306 304 305 292 274 292
188 182 181 186 189 199 195 208 261 293 267 253 251 252 256 250 234 248 249 251 252 239 122 194 214 206 235 228 222 218 234 236 245 277 273 288 296 295 301 301 303 299 297
168 185 191 195 196 193 205 219 216 231 246 277 271 268 267 258 262 249 244 246 87 55 142 186 213 209 217 212 232 228 262 284 273 274 284 277 275 261 299 298 296 291 294
191 201 200 193 184 197 194 204 210 226 240 238 317 298 344 281 274 261 211 150 181 199 182 208 200 193 205 212 231 242 226 258 247 279 277 270 273 241 283 277 284 289 284
216 210 180 188 192 204 190 203 221 231 246 244 226 228 200 142 166 228 99 151 177 191 182 192 202 205 214 211 214 225 273 282 282 265 268 263 272 234 270 284 282 285 289
196 174 182 176 201 197 201 215 214 212 237 232 232 200 211 197 200 203 202 204 201 196 183 184 199 212 214 200 207 222 234 265 246 262 267 268 261 286 256 266 276 277 278
187 192 190 207 191 198 214 199 205 218 228 236 229 236 236 175 189 202 206 207 198 194 180 169 196 205 192 190 198 209 237 266 274 260 263 259 262 263 266 274 279 278 280
188 193 203 207 207 190 191 199 212 215 222 224 217 217 212 192 196 201 199 183 182 193 180 175 190 221 215 213 192 195 219 249 249 213 265 279 276 273 271 276 280 284 284
191 198 202 203 194 206 211 209 216 220 223 218 210 212 209 199 199 206 193 180 177 189 181 186 195 217 231 238 214 215 227 246 242 249 228 257 272 279 273 273 276 278 279
198 201 201 201 203 211 204 217 220 222 222 221 211 201 204 187 187 200 192 181 175 177 199 201 212 227 245 263 266 255 243 260 254 244 223 237 256 266 269 273 278 281 277
190 204 204 172 195 201 209 217 228 220 225 217 202 196 197 192 197 191 185 178 171 183 199 212 226 233 250 254 261 269 269 271 265 243 231 237 253 268 269 273 279 275 277